Wind_Speed
44 46 48 51 53 55 58 60 62 64 66 68 70 72 73 75 76 77 78 78 79 79 79 79 79 79 80 79 79 79 79 78 76 71 72 73 73 73 73 73 72 71 71
49 51 53 56 58 61 63 65 68 70 72 74 76 77 78 79 80 81 82 82 82 82 81 82 81 82 81 81 80 79 78 78 76 73 72 72 72 72 72 71 70 70 70
54 56 59 61 64 66 68 71 73 75 77 79 80 81 82 83 84 84 85 85 84 84 83 83 82 82 81 80 79 78 77 77 76 74 71 71 71 71 71 71 70 70 70
59 61 64 67 69 71 74 76 78 80 81 82 83 84 85 86 86 86 86 86 85 84 83 82 81 80 79 78 77 75 74 73 72 71 69 68 69 69 69 69 69 69 69
64 66 69 71 73 76 78 80 81 82 84 85 86 86 86 86 85 85 84 83 82 80 78 77 76 74 73 72 71 70 69 69 68 67 65 65 65 66 66 67 68 68 68
68 70 73 75 78 79 81 82 83 85 85 86 86 86 85 84 83 81 80 77 75 72 70 69 68 67 67 67 67 66 66 65 64 63 62 62 62 63 64 65 66 66 65
72 75 77 79 81 82 84 85 85 86 86 85 84 83 81 79 76 73 71 69 67 65 63 62 62 61 62 62 62 62 61 61 61 60 60 59 60 60 62 63 63 63 63
76 78 80 82 83 85 85 86 86 86 85 83 80 77 74 70 67 65 63 61 59 57 56 56 55 55 55 56 56 56 56 57 58 58 57 56 56 57 58 58 59 59 60
79 81 82 84 85 86 86 86 85 84 81 77 73 70 66 62 60 58 57 56 53 51 50 50 50 50 50 51 51 52 52 52 54 55 55 54 54 54 54 55 55 56 56
81 82 84 85 86 86 85 84 82 79 75 70 65 62 59 56 54 53 53 51 48 46 45 46 47 47 46 47 47 47 47 48 49 50 51 51 51 50 51 51 52 54 55
83 84 85 85 85 84 82 79 76 72 67 63 59 56 54 51 50 49 48 46 44 43 42 42 42 43 43 43 43 43 43 44 45 45 46 46 47 48 49 51 52 52 53
84 84 84 83 81 79 76 72 68 65 60 56 54 50 48 47 46 45 43 42 42 41 39 38 38 38 38 38 39 40 40 41 41 42 43 44 45 47 49 50 51 51 51
83 82 81 79 75 72 69 65 61 58 55 52 49 46 44 43 42 41 40 39 39 38 37 36 35 35 36 36 37 37 38 39 40 41 42 43 45 46 48 49 50 50 51
82 79 77 73 69 65 62 59 56 54 51 49 45 43 41 39 38 38 38 37 36 36 35 35 34 34 34 34 35 36 37 38 40 41 41 43 44 45 46 47 48 49 49
78 75 71 67 64 60 56 54 52 50 49 46 44 42 40 37 36 37 36 34 34 34 33 33 33 33 33 34 35 36 37 38 39 40 40 41 42 43 44 45 46 46 46
73 69 65 62 58 55 52 49 47 47 45 44 43 42 40 39 37 35 34 33 33 33 33 32 32 33 33 33 34 35 37 38 38 39 39 40 40 41 42 42 42 43 43
68 64 61 57 55 52 50 47 43 41 42 42 42 41 40 38 36 35 34 33 33 33 33 33 33 32 32 33 33 34 35 36 37 37 37 38 38 38 38 39 39 40 41
63 60 56 54 51 49 47 45 43 40 38 37 38 39 37 36 35 35 34 33 33 33 33 32 31 31 32 32 33 33 34 34 34 34 34 34 34 34 35 36 37 38 38
58 55 52 50 48 46 45 43 41 40 38 36 35 35 36 35 35 34 34 33 32 32 32 31 31 31 32 32 32 32 32 32 32 32 31 31 31 31 32 34 35 35 36
54 51 49 47 46 44 43 41 40 38 37 36 34 34 34 33 33 33 32 32 32 31 31 31 31 31 31 31 31 31 30 30 30 30 30 30 30 31 31 32 33 33 34
50 47 45 44 43 42 40 39 38 37 35 34 34 34 34 33 32 31 31 31 31 30 30 30 30 30 30 30 29 29 29 29 29 29 29 29 30 30 30 30 31 32 32
46 44 42 42 41 39 38 38 37 35 34 33 33 33 33 32 31 31 31 30 29 29 29 30 29 29 29 28 28 28 28 28 28 27 28 28 28 28 28 29 29 31 32
43 41 40 39 39 38 36 36 36 34 33 33 33 32 31 30 29 30 29 28 28 28 28 28 28 27 27 26 26 26 26 26 26 26 27 27 27 27 27 28 29 30 31
39 38 37 37 37 35 34 34 34 33 32 32 31 30 29 28 28 28 28 27 27 27 27 26 26 25 24 24 24 25 25 25 25 26 26 26 26 26 27 28 28 29 30
37 36 36 35 35 33 33 32 31 30 30 30 29 28 28 27 27 27 26 26 26 25 25 24 24 23 23 24 24 24 25 25 25 25 25 25 26 26 27 27 28 29 30
34 34 34 34 33 32 31 31 30 29 29 28 28 27 27 26 26 25 25 25 24 24 23 22 23 23 23 23 24 24 25 25 24 24 25 26 26 27 27 28 29 30 30
Wind_Direction
300 300 300 300 300 299 299 299 298 297 296 296 295 294 293 292 290 289 288 287 286 285 284 282 281 280 279 279 278 277 277 277 276 275 274 273 273 274 273 273 273 273 273
300 300 300 300 300 300 300 299 299 298 297 296 295 294 293 292 291 290 289 288 286 285 284 282 281 279 279 278 277 276 276 275 275 274 273 273 273 273 273 273 272 273 272
300 300 301 301 301 301 300 300 299 298 298 297 296 295 294 293 292 291 289 288 287 285 283 282 280 279 278 277 276 276 275 274 274 274 272 272 272 272 272 272 272 272 272
301 301 302 302 302 301 301 301 300 299 298 298 297 296 295 294 293 292 290 288 287 285 283 281 279 278 277 277 276 276 275 275 274 274 273 272 272 272 272 272 271 271 271
302 303 303 303 302 302 302 302 301 300 300 299 299 298 297 296 294 293 291 289 287 285 284 282 281 279 278 277 276 276 275 275 274 274 274 273 272 272 271 270 270 271 271
303 304 304 304 304 303 303 303 302 302 302 301 301 300 299 297 295 294 292 290 289 287 285 283 281 280 278 277 276 275 275 275 274 274 274 273 273 272 271 270 271 271 271
304 305 305 305 305 304 304 304 304 304 304 303 302 301 300 298 296 295 294 292 291 289 287 284 283 281 279 278 277 276 275 275 275 275 274 274 273 273 272 272 271 271 271
306 306 306 306 306 306 306 306 306 305 305 304 303 302 301 299 298 296 295 294 293 291 289 287 286 284 282 280 279 278 277 277 276 275 275 274 274 273 273 273 272 272 273
307 308 308 308 308 308 308 307 307 306 306 305 304 303 302 301 299 298 297 297 295 293 291 289 288 286 284 282 280 279 278 277 276 276 276 276 276 275 274 274 274 274 274
309 309 309 309 309 309 309 308 308 308 307 306 305 304 304 303 301 301 300 299 297 295 293 291 290 288 286 284 282 281 279 277 276 276 276 276 276 276 276 275 275 275 276
310 310 310 311 311 310 310 309 309 308 308 307 307 306 306 305 304 303 302 301 299 298 296 294 292 290 288 286 285 284 282 279 277 277 277 277 277 277 277 277 277 277 277
311 311 311 311 311 311 311 310 310 309 309 309 308 307 307 307 306 305 304 303 302 301 300 297 295 293 291 289 288 286 284 282 281 280 279 278 278 277 278 278 278 278 278
312 312 312 312 311 311 311 311 311 311 310 310 310 309 309 308 308 307 307 305 304 303 302 300 297 295 293 292 291 289 288 286 285 283 282 281 279 279 279 279 279 279 280
312 312 312 312 312 311 311 311 312 311 311 312 311 311 311 310 309 308 308 307 306 305 304 302 300 298 296 293 292 292 291 290 288 287 285 284 282 282 282 281 280 280 280
313 312 312 312 312 312 311 312 312 312 312 312 312 312 312 311 311 310 310 308 306 304 303 303 301 300 298 296 295 294 294 293 291 290 288 287 285 284 283 282 282 281 281
313 313 313 313 313 312 312 312 312 312 313 313 313 313 314 314 313 313 312 310 309 307 306 305 304 303 301 299 297 296 296 295 293 291 290 288 287 286 285 284 283 283 283
313 313 313 313 313 313 313 312 312 312 312 312 312 313 314 314 314 314 313 312 311 309 308 307 306 305 304 302 300 300 299 298 297 294 292 291 289 288 287 286 285 285 285
312 312 313 313 313 313 314 314 314 313 312 312 312 313 314 314 314 314 313 313 312 311 310 309 308 307 306 305 304 303 302 302 300 298 296 295 293 291 290 289 288 288 288
311 311 312 313 313 314 314 314 315 315 314 314 314 314 315 315 314 314 313 313 313 313 312 312 311 310 308 308 307 306 305 304 303 302 300 299 298 296 294 293 292 292 291
311 311 312 313 313 314 314 314 315 315 315 315 315 315 315 315 314 314 313 313 314 314 313 313 313 312 312 311 310 308 307 307 307 305 303 302 301 300 299 298 296 295 294
311 311 311 312 313 314 314 315 315 316 316 316 315 315 315 316 316 315 314 314 314 314 314 314 314 314 313 313 311 310 310 310 309 307 306 305 305 304 303 301 300 299 298
310 310 311 313 314 314 314 315 316 317 317 316 316 316 316 316 316 316 316 316 315 316 316 316 315 315 315 314 313 313 312 312 311 311 310 309 309 308 306 305 305 304 303
309 310 312 313 314 314 315 316 317 316 316 317 317 317 316 316 317 318 318 318 318 318 318 317 317 317 316 316 316 316 316 316 316 315 314 313 312 311 310 309 309 309 308
309 310 312 314 314 315 315 316 316 316 317 318 318 318 318 318 318 319 320 320 320 320 320 319 319 319 319 320 320 321 321 320 320 319 318 317 316 315 314 314 313 313 312
309 310 312 314 315 315 315 316 317 317 318 319 319 320 319 319 319 320 321 322 323 323 323 323 323 323 323 324 324 324 324 323 323 322 321 320 318 317 317 316 316 315 315
309 311 312 314 315 316 316 316 317 317 318 318 319 320 320 320 320 321 322 324 325 326 326 326 327 327 327 327 327 327 326 325 325 324 323 322 320 319 319 319 317 317 317
Height
5715 5711 5706 5701 5696 5690 5684 5678 5672 5666 5659 5652 5645 5638 5631 5624 5617 5610 5604 5597 5591 5585 5579 5573 5569 5562 5557 5553 5548 5545 5542 5539 5541 5551 5546 5543 5539 5537 5535 5533 5532 5531 5531
5703 5698 5693 5687 5682 5675 5669 5662 5655 5648 5640 5632 5625 5617 5609 5602 5594 5586 5579 5573 5566 5561 5554 5548 5544 5537 5533 5529 5524 5522 5519 5516 5516 5523 5524 5520 5518 5516 5513 5512 5511 5511 5511
5691 5685 5679 5673 5666 5659 5652 5644 5636 5628 5620 5611 5603 5594 5586 5578 5569 5561 5553 5547 5540 5534 5528 5522 5517 5511 5508 5504 5500 5498 5496 5493 5493 5496 5500 5498 5496 5494 5492 5491 5490 5489 5489
5677 5671 5664 5657 5650 5642 5634 5625 5616 5607 5598 5589 5580 5571 5561 5552 5543 5535 5526 5520 5514 5507 5501 5495 5491 5485 5482 5479 5476 5475 5472 5471 5470 5471 5475 5475 5473 5472 5470 5470 5468 5467 5467
5662 5655 5648 5640 5631 5623 5614 5604 5595 5585 5575 5565 5556 5546 5536 5526 5516 5507 5499 5493 5486 5481 5475 5470 5465 5461 5458 5455 5453 5452 5450 5449 5449 5449 5452 5452 5452 5450 5450 5447 5447 5447 5447
5646 5638 5630 5622 5612 5603 5593 5583 5573 5562 5552 5541 5531 5520 5511 5500 5490 5480 5472 5466 5461 5456 5452 5447 5442 5438 5435 5432 5431 5430 5429 5428 5429 5429 5430 5431 5431 5429 5427 5426 5426 5426 5427
5629 5621 5611 5602 5592 5582 5571 5560 5549 5539 5529 5518 5507 5495 5486 5476 5465 5457 5449 5442 5439 5434 5429 5425 5422 5419 5415 5413 5411 5410 5409 5409 5409 5409 5410 5411 5410 5408 5406 5406 5405 5406 5406
5611 5602 5591 5581 5571 5560 5549 5538 5526 5515 5505 5494 5483 5472 5463 5455 5444 5436 5429 5424 5419 5415 5410 5406 5403 5401 5397 5394 5393 5392 5392 5391 5390 5389 5391 5391 5390 5388 5387 5387 5386 5386 5387
5593 5582 5571 5559 5549 5538 5527 5515 5503 5492 5482 5471 5461 5451 5443 5436 5427 5419 5412 5407 5403 5399 5394 5390 5386 5384 5381 5378 5376 5376 5376 5375 5372 5371 5372 5371 5371 5370 5369 5368 5367 5367 5368
5574 5563 5551 5538 5527 5516 5505 5493 5481 5470 5460 5451 5443 5433 5425 5418 5411 5404 5397 5392 5388 5384 5380 5376 5372 5368 5366 5363 5361 5360 5359 5359 5357 5356 5355 5354 5353 5352 5351 5351 5350 5349 5349
5554 5543 5531 5518 5506 5494 5483 5472 5461 5451 5442 5434 5426 5419 5411 5403 5397 5390 5384 5378 5374 5370 5367 5363 5359 5355 5352 5349 5347 5345 5344 5343 5342 5341 5340 5339 5338 5336 5335 5333 5333 5332 5331
5536 5524 5512 5499 5486 5474 5463 5454 5443 5433 5426 5418 5412 5406 5398 5391 5384 5378 5372 5366 5361 5357 5354 5350 5346 5343 5340 5337 5334 5332 5330 5329 5328 5327 5326 5325 5323 5321 5319 5317 5316 5314 5313
5516 5504 5493 5481 5469 5457 5446 5437 5429 5420 5411 5405 5398 5392 5387 5381 5374 5367 5361 5356 5350 5346 5342 5339 5335 5332 5329 5326 5323 5320 5318 5316 5315 5313 5312 5310 5308 5306 5304 5301 5299 5297 5296
5497 5486 5475 5464 5454 5444 5433 5423 5415 5407 5399 5393 5386 5381 5376 5370 5364 5358 5352 5346 5341 5336 5332 5329 5325 5321 5318 5315 5313 5310 5307 5304 5302 5300 5298 5296 5293 5291 5288 5286 5283 5281 5279
5479 5469 5458 5448 5438 5430 5422 5412 5403 5396 5387 5381 5375 5370 5365 5360 5355 5348 5342 5337 5332 5328 5323 5320 5316 5312 5309 5305 5302 5299 5296 5293 5290 5287 5284 5282 5279 5276 5273 5271 5268 5266 5264
5462 5452 5443 5433 5425 5416 5409 5403 5394 5386 5378 5371 5364 5359 5354 5349 5344 5339 5333 5328 5323 5319 5315 5311 5307 5303 5299 5295 5292 5289 5285 5281 5278 5274 5271 5268 5265 5262 5260 5257 5254 5251 5249
5445 5436 5428 5420 5412 5404 5396 5389 5384 5379 5370 5362 5355 5350 5344 5339 5334 5329 5325 5320 5315 5310 5306 5302 5298 5294 5290 5286 5282 5279 5275 5270 5266 5262 5259 5256 5252 5249 5246 5243 5240 5238 5235
5431 5423 5415 5407 5400 5392 5385 5378 5372 5366 5361 5356 5348 5341 5336 5331 5326 5321 5316 5312 5307 5302 5297 5293 5289 5285 5281 5277 5272 5268 5264 5260 5256 5251 5248 5244 5241 5237 5234 5231 5228 5225 5222
5418 5411 5403 5396 5389 5382 5375 5368 5362 5356 5350 5345 5340 5334 5328 5323 5318 5313 5308 5303 5299 5294 5290 5285 5280 5276 5272 5267 5263 5259 5255 5250 5246 5242 5238 5234 5230 5227 5223 5220 5217 5213 5210
5407 5399 5391 5385 5378 5372 5365 5359 5353 5347 5341 5336 5331 5326 5321 5316 5311 5306 5301 5296 5291 5286 5282 5277 5273 5268 5263 5259 5255 5250 5246 5242 5237 5233 5229 5225 5221 5217 5214 5210 5206 5202 5198
5395 5388 5381 5375 5368 5362 5356 5350 5344 5338 5333 5328 5323 5318 5312 5308 5303 5298 5293 5289 5284 5279 5274 5270 5265 5260 5256 5251 5247 5242 5238 5234 5229 5225 5221 5217 5213 5208 5204 5200 5196 5192 5188
5383 5377 5371 5365 5359 5353 5347 5341 5335 5330 5325 5320 5316 5310 5305 5300 5295 5291 5286 5281 5276 5272 5267 5262 5258 5253 5248 5244 5239 5235 5231 5226 5222 5217 5213 5209 5204 5200 5196 5191 5187 5182 5178
5372 5367 5361 5356 5350 5344 5338 5333 5327 5322 5317 5313 5308 5303 5298 5293 5288 5284 5279 5274 5270 5265 5260 5255 5251 5246 5242 5237 5233 5228 5224 5219 5215 5210 5206 5201 5197 5192 5188 5183 5178 5173 5168
5362 5357 5352 5347 5341 5336 5331 5325 5320 5315 5310 5305 5301 5296 5291 5287 5282 5277 5273 5268 5263 5259 5254 5249 5245 5240 5236 5231 5227 5222 5217 5213 5208 5204 5199 5194 5190 5185 5181 5176 5171 5166 5160
5353 5348 5343 5338 5333 5328 5323 5318 5313 5308 5303 5299 5294 5290 5285 5281 5276 5272 5267 5262 5258 5253 5248 5244 5239 5235 5231 5226 5222 5217 5212 5207 5202 5198 5193 5188 5184 5179 5174 5169 5164 5158 5153
5344 5339 5335 5330 5325 5320 5315 5311 5306 5301 5297 5292 5288 5284 5279 5275 5271 5267 5262 5258 5253 5249 5244 5240 5235 5231 5226 5222 5217 5212 5207 5202 5197 5192 5187 5182 5177 5172 5167 5162 5157 5151 5145